Regional Weather Roundup
Issued by NWS Sioux Falls, SD

Home | Current Version | Previous Version | Text Only | Print | Product List | Glossary Off
Versions: 1 2 3 4 5 6 7 8 9 10 11 12 13 14 15 16 17 18 19 20 21 22 23 24 25 26 27 28 29 30 31 32 33 34 35 36 37 38 39 40 41 42 43 44 45 46 47 48 49 50

000
ASUS43 KFSD 232010
RWRFSD

WEATHER ROUNDUP FOR SE SOUTH DAKOTA/SW MINNESOTA/NW IOWA
NATIONAL WEATHER SERVICE SIOUX FALLS SD
300 PM CDT MON MAY 23 2022

NOTE: "FAIR" INDICATES FEW OR NO CLOUDS BELOW 12,000 FEET WITH NO
SIGNIFICANT WEATHER AND OR OBSTRUCTIONS TO VISIBILITY.


SDZ038>040-050-052>070-232100-
SOUTHEAST SOUTH DAKOTA

CITY           SKY/WX    TMP DP  RH WIND       PRES   REMARKS
BROOKINGS      CLOUDY    66  37  34 S15G28    30.17F
CHAMBERLAIN    PTSUNNY   62  42  46 S20       30.16S
HURON          LGT RAIN  59  41  51 SW23G41   30.15R
MITCHELL       CLOUDY    64  39  39 SW18G26   30.16S
SIOUX FALLS    CLOUDY    66  37  34 S9        30.19F
WINNER         PTSUNNY   61  42  49 SE18G26   30.16F
YANKTON        CLOUDY    63  36  36 S9        30.20S
$$

MNZ071-072-080-081-089-090-097-098-232100-
SOUTHWEST MINNESOTA

CITY           SKY/WX    TMP DP  RH WIND       PRES   REMARKS
FAIRMONT       SUNNY     64  30  27 VRB5      30.25F
JACKSON        MOSUNNY   64  28  25 CALM      30.24F
LUVERNE        CLOUDY    64  32  29 S13       30.21S
MARSHALL       PTSUNNY   67  36  31 S10       30.20F
MONTEVIDEO     MOSUNNY   66  27  22 MISG      30.20F
PIPESTONE        N/A     64  37  36 S12       30.19F
REDWOOD FALLS  MOSUNNY   67  35  30 S14G20    30.22F
TRACY          PTSUNNY   67  27  22 S5        30.21F
WINDOM         MOSUNNY   64  32  29 S6        30.22F
WORTHINGTON    PTSUNNY   65  32  29 S9        30.22F
$$

IAZ001>003-012>014-020>022-031-032-NEZ013-014-SDZ071-232100-
NORTHWEST IOWA

CITY           SKY/WX    TMP DP  RH WIND       PRES   REMARKS
DENISON        PTSUNNY   63  36  36 SE13G18   30.23F
ESTHERVILLE    MOSUNNY   65  34  31 VRB5      30.23F
LE MARS        PTSUNNY   64  34  32 SE6       30.20F
MAURICE        FAIR      64  36  34 S10       30.20S
SHELDON        PTSUNNY   66  28  24 S13       30.20S
SIOUX CITY     PTSUNNY   66  38  35 SE10      30.20F
SPENCER        PTSUNNY   66  35  31 S7        30.23F
STORM LAKE     PTSUNNY   64  30  27 SE12      30.23F
$$

ABBREVIATIONS USED IN REMARKS
   TC - TEMPERATURE IN CELSIUS
  WCI - WIND CHILL INDEX
   HX - HEAT INDEX
  VSB - VISIBILITY




USA.gov is the U.S. government's official web portal to all federal, state and local government web resources and services.